Location: Kiltepe
(36.4752°N, 30.0120°E)
Time: 20:02:36
(UTC+00:00)

Cosmos 407 Rocket - Pass Details

Date: 03 August 2024
Orbit: 740 x 784 km, 74.1° (Epoch: 14 September)

Event Time Altitude Azimuth Distance (km) Brightness Sun altitude
Rises 18:35:56 0° 341° (NNW) 3,237 7.7 -16.9°
Reaches altitude 10° 18:38:18 10° 341° (NNW) 2,314 6.8 -17.3°
Maximum altitude 18:43:34 83° 255° (WSW) 784 3.5 -18.1°
Enters shadow 18:46:36 26° 168° (SSE) 1,484 4.5 -18.6°
